Tracking 29892 objects as of 21-Nov-2024
HD Live streaming from Space Station
objects crossing your sky now

FENGYUN 1C DEB

Track FENGYUN 1C DEB now!
10-day predictions


NORAD ID: 31208
Int'l Code: 1999-025BKN
Perigee: 723.6 km
Apogee: 748.7 km
Inclination: 99.2 °
Period: 99.4 minutes
Semi major axis: 7107 km
RCS: 0.0067 m2 (small)
Launch date: May 10, 1999
Source: People's Republic of China (PRC)
Launch site: Taiyaun Space Center, China (TSC)

Note: This is SATELLITE DEBRIS
Your satellite tracking list
Your tracking list is empty




NASA's NSSDC Master Catalog

Two Line Element Set (TLE):
1 31208U 99025BKN 24325.25298288  .00012719  00000-0  33581-2 0  9991
2 31208  99.2325  62.0787 0017664 353.5945  34.0797 14.48957707919948
Source of the keplerian elements: AFSPC